Wetbulb
67.49 69.38 70.97 71.13 71.12 71.15 71.78 71.31 70.83 70.91 69.90 69.64 69.28 69.03 68.83 69.00 69.39 69.11 70.73 71.18 71.13 71.97 71.56 70.60 69.31 68.58 68.24 68.31 68.15 68.16 67.90 67.97 68.55 68.83 68.54 68.48 68.85 69.12 69.11 68.83 69.46 68.76 70.24
69.73 70.04 70.64 71.88 71.38 71.56 71.93 71.65 71.38 70.92 69.69 69.34 69.11 68.93 68.67 68.35 68.75 69.07 69.28 70.51 70.63 71.16 70.72 69.69 68.70 68.05 67.07 66.63 67.10 67.08 66.98 66.84 68.35 68.72 68.16 67.93 67.08 67.32 67.55 67.59 68.26 67.39 68.84
69.79 70.21 70.08 71.58 71.98 71.95 72.07 71.94 71.30 70.66 69.54 69.10 68.65 68.16 67.90 67.87 68.04 68.37 68.78 70.16 70.17 70.39 69.70 68.91 67.93 67.27 66.21 65.93 66.21 66.05 65.95 66.03 67.48 68.00 67.02 64.91 65.30 66.75 67.09 66.57 66.74 66.98 67.20
70.40 70.85 70.42 70.72 72.20 71.86 72.06 71.70 71.23 70.38 69.17 68.48 67.89 67.33 66.92 66.74 66.98 67.64 68.34 69.15 69.90 69.75 69.44 68.47 66.94 66.19 65.76 65.81 65.81 65.81 65.84 66.54 67.33 66.85 64.97 64.45 64.36 66.43 66.66 66.27 66.16 66.09 66.07
70.54 71.15 71.37 71.02 72.55 71.91 71.87 71.81 71.24 70.63 69.34 68.45 67.89 67.09 66.07 65.72 65.72 66.53 67.57 68.05 69.09 69.03 67.93 66.43 65.98 65.67 65.49 65.57 65.55 65.64 65.68 66.89 66.58 64.93 64.94 64.88 64.69 65.24 66.10 65.92 65.58 65.55 66.29
70.32 71.21 70.10 71.77 72.49 71.78 71.68 71.69 71.27 70.50 69.38 68.89 68.47 67.35 65.82 65.05 64.90 65.69 66.52 66.84 67.37 66.87 65.53 64.94 64.84 64.75 64.84 65.10 65.03 65.22 65.73 67.25 65.88 65.19 65.32 65.14 64.19 66.55 66.36 66.36 66.25 66.59 66.26
69.59 70.53 71.05 71.35 71.72 71.86 71.64 71.65 71.23 70.64 69.74 69.05 68.51 67.61 65.68 64.48 64.31 64.92 65.28 65.74 65.98 64.49 63.71 63.44 63.59 63.70 64.07 63.97 64.07 64.40 65.69 65.85 64.27 63.69 63.60 65.05 65.39 67.60 67.86 66.91 66.27 65.92 66.58
69.70 70.92 70.45 68.45 69.69 70.49 71.01 70.87 70.82 70.51 69.98 69.16 68.30 67.53 65.74 64.41 64.14 64.15 64.51 64.62 64.31 62.98 62.03 62.12 62.71 63.11 63.31 63.09 63.33 63.43 63.93 63.35 62.31 62.12 62.56 63.33 64.87 65.58 66.19 65.27 64.89 64.50 64.41
69.99 70.15 70.02 70.17 69.41 67.39 68.75 68.81 69.39 69.78 69.61 69.25 68.79 68.07 66.78 65.37 64.75 64.55 64.13 63.55 63.12 61.80 60.82 61.14 61.95 62.64 62.92 62.89 63.04 63.31 63.27 62.78 62.23 62.76 62.33 62.68 64.07 64.09 64.04 64.13 64.20 63.69 63.34
68.91 69.17 69.42 70.01 70.08 70.17 70.61 66.26 67.27 68.09 68.52 68.34 67.49 65.94 64.66 64.42 63.78 63.26 62.36 62.82 61.79 60.77 60.16 60.24 61.43 62.14 61.93 61.70 61.51 62.17 62.06 62.17 62.39 62.71 62.77 63.19 64.96 65.87 65.59 64.48 63.06 62.12 61.44
67.46 68.48 69.01 68.99 69.00 69.40 69.78 68.14 65.67 65.97 66.32 65.78 64.73 62.67 62.16 63.48 62.76 62.78 61.10 61.75 61.18 60.19 59.92 60.26 60.97 60.59 59.74 59.76 60.43 60.84 60.58 60.45 61.37 61.81 61.89 63.00 63.99 64.58 64.23 62.78 61.87 61.09 60.47
67.38 67.75 68.50 68.64 68.64 68.95 68.93 69.80 69.82 69.51 69.20 67.97 66.61 65.00 66.08 65.63 64.42 61.83 59.12 59.95 60.43 59.80 59.32 59.56 60.09 59.98 59.70 59.27 58.77 59.82 60.11 59.42 59.65 59.38 60.49 62.30 62.62 62.65 62.20 61.29 60.90 60.36 59.01
67.62 67.62 68.25 68.55 68.67 68.83 68.52 69.90 70.19 70.17 69.90 69.21 67.50 67.12 67.44 65.26 63.05 62.41 59.87 59.14 58.01 56.83 56.43 56.28 57.12 58.17 58.79 58.74 58.08 58.08 58.71 58.24 57.41 57.15 56.86 60.63 61.51 61.17 60.76 60.30 59.61 58.60 58.04
66.36 67.49 68.34 68.81 68.45 69.52 69.94 69.52 69.63 69.38 69.29 68.96 68.69 67.35 66.65 64.31 63.62 62.01 61.51 60.25 59.98 59.71 58.75 58.23 57.36 57.50 57.01 56.77 56.45 55.76 56.43 56.29 55.80 55.69 54.57 56.85 59.39 59.66 59.99 59.17 58.31 57.51 56.78
65.39 66.72 67.87 68.61 69.04 69.11 69.34 69.25 69.16 69.07 69.55 69.26 69.04 68.43 67.30 64.67 64.36 63.61 60.44 58.64 59.04 59.45 58.68 57.27 56.51 55.39 54.35 54.12 53.42 52.76 53.22 53.50 52.83 53.38 53.72 54.36 57.62 58.06 58.14 57.78 57.19 56.84 56.25
65.55 66.17 67.32 68.07 67.68 66.90 67.50 68.27 68.30 69.11 69.06 69.22 68.47 68.52 67.86 66.06 65.07 63.08 59.68 58.11 58.79 59.28 57.65 56.40 54.89 52.83 51.58 51.38 48.79 48.80 49.26 49.88 50.00 50.77 52.28 51.05 53.90 54.94 55.44 55.98 56.21 55.74 55.40
65.50 65.86 66.37 66.55 67.27 66.85 66.14 67.22 67.72 68.33 68.26 68.78 68.68 68.72 67.99 66.72 64.73 63.20 60.30 59.56 59.64 58.87 56.85 52.84 49.98 48.29 46.83 46.19 45.51 45.07 44.90 45.17 45.60 47.32 49.11 48.65 49.06 51.65 52.71 53.62 53.84 53.96 53.97
64.78 64.73 65.68 64.49 64.41 65.18 65.26 66.19 66.55 67.42 67.71 68.06 68.46 68.35 68.04 67.20 65.52 63.23 62.21 61.22 58.32 57.15 52.27 49.64 47.29 45.57 44.23 43.74 44.12 43.36 42.79 42.65 42.54 42.74 44.58 45.27 46.02 46.75 48.73 50.22 51.14 51.68 51.99
63.33 64.17 64.54 63.74 62.61 63.47 64.32 65.27 65.42 66.07 66.39 67.30 67.78 67.55 68.01 67.16 66.10 63.49 61.75 59.23 56.83 54.06 52.24 47.41 46.09 45.82 43.20 42.20 42.31 42.58 41.88 41.19 41.24 40.63 40.24 40.77 42.52 43.72 44.18 45.99 46.92 48.03 49.39
62.27 63.35 63.45 62.83 61.62 62.18 63.02 63.02 63.50 64.46 64.00 65.42 66.14 65.57 64.90 66.39 65.30 63.41 60.35 56.98 55.52 53.33 49.50 48.09 44.34 44.51 42.16 40.93 40.47 40.26 40.53 40.56 40.92 40.03 38.91 39.12 39.34 39.61 40.03 41.28 43.25 43.62 46.08
59.43 60.33 61.47 61.03 60.38 60.97 60.21 59.30 59.51 59.70 61.77 60.41 60.82 62.42 63.06 62.18 62.26 61.01 58.28 56.03 54.68 52.77 50.22 47.89 41.88 39.76 39.53 40.79 38.31 38.42 38.21 38.98 38.88 39.05 39.27 38.39 37.79 37.88 38.24 38.78 39.58 40.47 41.04
56.35 57.94 58.10 58.08 58.14 58.28 58.48 58.36 58.34 57.95 58.11 58.46 57.76 58.12 58.59 58.98 60.08 58.87 56.34 54.61 53.25 50.66 46.97 42.68 40.41 39.97 39.06 40.16 40.33 39.07 33.76 35.09 36.71 37.57 38.41 37.54 36.81 37.09 36.37 36.63 37.19 38.11 39.30
54.34 55.73 55.93 56.10 56.25 56.57 57.35 57.63 57.14 56.72 56.41 54.51 55.22 54.12 52.66 54.11 56.01 56.23 55.40 53.91 51.80 50.03 46.60 42.40 41.18 41.71 37.26 39.59 42.23 43.46 36.72 36.59 34.16 35.98 36.24 36.60 36.33 36.16 35.72 35.44 35.28 35.95 37.11
54.59 55.20 55.24 55.58 55.62 55.98 57.09 56.35 55.60 54.38 52.98 52.84 53.78 53.17 50.16 50.45 52.46 53.69 54.30 53.38 52.00 50.88 48.20 43.42 43.55 42.83 41.28 39.34 43.15 44.67 43.96 41.40 35.62 29.91 34.84 35.12 36.09 35.28 35.25 34.83 34.27 34.48 35.37
55.09 54.92 55.09 54.67 54.74 55.35 56.20 56.25 55.82 53.66 53.83 55.93 55.79 53.18 50.32 47.06 49.02 50.18 50.23 50.67 49.81 49.69 48.03 45.07 42.19 43.67 42.64 42.01 42.53 41.84 41.48 42.92 43.34 36.35 30.06 31.14 33.77 34.94 35.30 34.40 34.46 33.63 33.82
55.04 54.51 54.37 53.56 53.44 54.52 55.17 55.64 55.30 53.73 54.17 55.27 53.94 50.85 48.42 46.22 44.94 45.44 46.50 47.77 48.44 48.03 46.61 44.95 43.72 44.62 43.27 44.10 44.38 42.21 40.14 38.34 36.97 37.38 34.64 31.58 30.78 32.66 34.40 34.40 33.54 33.90 33.88
MSLP
1017.64 1017.92 1018.65 1019.19 1019.36 1019.66 1019.56 1019.72 1019.69 1019.72 1019.75 1019.79 1020.02 1019.99 1019.96 1020.03 1020.06 1019.91 1019.81 1019.68 1019.68 1019.63 1019.82 1020.06 1020.29 1020.38 1020.43 1020.35 1020.31 1020.37 1020.36 1020.42 1020.26 1020.22 1020.34 1020.29 1020.30 1020.30 1020.13 1020.14 1019.90 1019.89 1019.83
1017.02 1017.69 1018.73 1019.17 1019.44 1019.58 1019.73 1019.87 1019.94 1020.00 1020.01 1020.12 1020.29 1020.20 1020.32 1020.50 1020.45 1020.44 1020.32 1020.20 1020.21 1020.17 1020.37 1020.65 1020.92 1021.04 1021.09 1021.00 1020.89 1020.93 1020.83 1020.76 1020.65 1020.59 1020.62 1020.82 1020.90 1020.97 1020.86 1020.80 1020.74 1020.66 1020.57
1016.78 1017.47 1018.65 1019.27 1019.55 1019.73 1019.83 1019.98 1020.12 1020.17 1020.23 1020.44 1020.54 1020.52 1020.63 1020.84 1020.88 1020.84 1020.74 1020.58 1020.62 1020.62 1020.89 1021.28 1021.49 1021.55 1021.68 1021.56 1021.53 1021.57 1021.34 1021.19 1020.94 1020.83 1020.82 1021.07 1021.52 1021.51 1021.49 1021.49 1021.37 1021.27 1021.10
1016.73 1017.38 1018.29 1019.28 1019.52 1019.80 1019.99 1020.19 1020.33 1020.46 1020.60 1020.71 1020.75 1020.84 1021.07 1021.11 1021.26 1021.30 1021.15 1021.04 1021.00 1021.18 1021.40 1021.89 1022.04 1022.09 1022.16 1022.15 1022.06 1022.02 1021.83 1021.57 1021.24 1021.15 1021.11 1021.46 1021.76 1022.06 1022.05 1022.03 1022.07 1021.97 1021.81
1016.84 1017.37 1018.16 1019.17 1019.58 1019.94 1020.17 1020.38 1020.58 1020.74 1020.90 1020.97 1021.08 1021.25 1021.43 1021.59 1021.62 1021.60 1021.51 1021.54 1021.60 1021.78 1022.04 1022.46 1022.63 1022.52 1022.57 1022.66 1022.52 1022.30 1022.08 1022.01 1021.80 1021.74 1021.91 1021.99 1022.40 1022.58 1022.64 1022.68 1022.62 1022.67 1022.49
1016.86 1017.26 1018.68 1019.23 1019.66 1020.02 1020.24 1020.53 1020.79 1020.96 1021.15 1021.30 1021.39 1021.68 1021.77 1021.78 1021.98 1021.94 1021.88 1022.05 1022.14 1022.48 1022.72 1022.96 1023.11 1022.97 1023.15 1022.99 1022.91 1022.83 1022.47 1022.24 1022.01 1022.18 1022.57 1022.90 1022.81 1023.15 1023.06 1023.10 1023.15 1023.04 1023.01
1017.04 1017.47 1018.66 1019.34 1019.72 1020.03 1020.30 1020.57 1020.84 1021.02 1021.32 1021.57 1021.70 1021.86 1022.02 1022.17 1022.18 1022.31 1022.48 1022.54 1022.83 1023.20 1023.30 1023.47 1023.49 1023.60 1023.73 1023.54 1023.45 1023.27 1022.99 1023.00 1023.19 1023.52 1023.63 1023.64 1023.59 1023.45 1023.51 1023.62 1023.72 1023.65 1023.61
1017.01 1017.63 1018.50 1019.42 1019.78 1020.10 1020.42 1020.76 1020.99 1021.26 1021.60 1021.77 1022.01 1022.14 1022.30 1022.39 1022.54 1022.77 1022.92 1023.03 1023.33 1023.58 1023.82 1023.88 1023.95 1024.26 1024.22 1024.25 1024.02 1023.83 1023.63 1023.36 1023.30 1023.74 1024.17 1024.21 1024.17 1024.11 1024.29 1024.38 1024.41 1024.42 1024.46
1016.97 1017.78 1018.41 1019.07 1019.74 1020.20 1020.53 1020.84 1021.18 1021.40 1021.72 1021.97 1022.24 1022.41 1022.59 1022.74 1022.95 1023.19 1023.28 1023.38 1023.65 1023.94 1024.18 1024.31 1024.44 1024.64 1024.87 1024.74 1024.60 1024.39 1024.10 1024.02 1023.84 1024.07 1024.50 1024.72 1024.79 1024.71 1024.80 1024.79 1024.99 1025.10 1025.22
1017.02 1017.64 1018.10 1018.61 1019.29 1019.83 1020.46 1020.93 1021.25 1021.53 1021.85 1022.14 1022.49 1022.74 1022.97 1023.21 1023.47 1023.67 1023.73 1023.88 1024.03 1024.37 1024.62 1024.75 1024.82 1025.19 1025.34 1025.25 1025.19 1024.97 1024.92 1024.83 1024.95 1025.47 1025.56 1025.50 1025.27 1025.15 1025.38 1025.50 1025.71 1025.90 1026.00
1017.20 1017.59 1017.94 1018.48 1018.88 1019.36 1019.97 1020.78 1021.29 1021.56 1021.86 1022.22 1022.65 1022.97 1023.13 1023.25 1023.57 1023.57 1024.13 1024.33 1024.57 1024.82 1025.01 1025.16 1025.45 1025.80 1025.87 1025.86 1025.63 1025.50 1025.43 1025.59 1025.85 1026.05 1026.20 1026.07 1025.88 1025.80 1025.94 1026.22 1026.38 1026.59 1026.81
1017.10 1017.51 1017.82 1018.39 1018.76 1019.17 1019.61 1020.35 1020.74 1021.24 1021.65 1021.86 1022.19 1022.60 1022.48 1022.89 1023.40 1024.00 1024.68 1024.90 1025.03 1025.22 1025.47 1025.70 1025.98 1026.10 1025.88 1025.96 1026.01 1025.81 1025.99 1026.43 1026.63 1026.71 1026.76 1026.59 1026.51 1026.54 1026.65 1026.91 1027.01 1027.17 1027.19
1016.65 1017.33 1017.66 1018.18 1018.59 1018.94 1019.25 1019.88 1020.18 1020.69 1021.05 1021.39 1021.89 1022.11 1022.35 1023.03 1023.76 1024.19 1024.92 1025.23 1025.51 1025.60 1025.78 1026.02 1026.08 1026.02 1026.16 1026.27 1026.41 1026.43 1026.59 1026.98 1027.35 1027.54 1027.59 1027.30 1027.17 1027.24 1027.29 1027.33 1027.52 1027.69 1027.84
1016.17 1016.73 1017.56 1017.76 1018.32 1018.58 1019.03 1019.45 1019.74 1020.01 1020.57 1020.94 1021.49 1021.82 1022.44 1023.03 1023.38 1023.78 1024.14 1024.79 1025.07 1025.09 1025.44 1025.80 1026.25 1026.57 1026.81 1027.01 1027.10 1027.20 1027.30 1027.59 1027.91 1028.18 1028.37 1027.96 1027.54 1027.54 1027.67 1027.91 1028.17 1028.36 1028.57
1015.76 1016.19 1016.91 1017.46 1017.82 1018.36 1018.83 1018.98 1019.57 1019.37 1020.03 1020.24 1020.70 1021.43 1022.05 1022.77 1023.18 1023.63 1024.17 1024.82 1025.00 1025.13 1025.43 1025.85 1026.27 1026.76 1027.28 1027.53 1027.85 1028.10 1028.24 1028.44 1028.72 1028.94 1029.08 1028.90 1028.53 1028.41 1028.57 1028.72 1028.86 1028.98 1029.15
1015.19 1015.77 1016.48 1017.13 1017.82 1018.43 1018.36 1018.52 1019.08 1019.17 1019.58 1020.04 1020.38 1020.86 1021.34 1021.88 1022.60 1023.44 1024.13 1024.63 1024.90 1025.25 1025.72 1026.06 1026.45 1026.91 1027.48 1027.93 1028.43 1028.77 1028.99 1029.14 1029.33 1029.47 1029.71 1029.99 1029.78 1029.61 1029.54 1029.49 1029.41 1029.56 1029.72
1014.65 1015.47 1016.06 1016.78 1017.23 1017.57 1018.02 1018.18 1018.45 1018.79 1019.15 1019.41 1020.02 1020.52 1020.95 1021.44 1022.07 1022.91 1023.78 1024.03 1024.40 1025.12 1025.67 1026.52 1027.30 1027.76 1027.84 1028.41 1028.97 1029.36 1029.61 1029.87 1030.11 1030.21 1030.32 1030.72 1030.89 1030.73 1030.52 1030.37 1030.31 1030.26 1030.28
1014.31 1014.91 1015.68 1016.50 1016.97 1017.28 1017.60 1017.93 1018.29 1018.40 1018.61 1018.86 1019.18 1019.87 1020.44 1020.91 1021.59 1022.23 1023.04 1023.68 1024.55 1025.22 1026.01 1026.81 1027.26 1027.92 1028.02 1028.54 1029.03 1029.56 1029.99 1030.30 1030.52 1030.72 1030.90 1031.00 1031.23 1031.45 1031.56 1031.46 1031.24 1031.04 1030.87
1013.45 1014.26 1015.02 1015.91 1016.49 1016.94 1017.33 1017.59 1017.99 1018.24 1018.50 1018.60 1018.77 1019.26 1019.68 1020.31 1020.99 1021.66 1022.52 1023.54 1024.44 1025.20 1025.84 1026.61 1027.47 1027.67 1028.01 1028.57 1029.21 1029.84 1030.30 1030.69 1030.87 1031.16 1031.52 1031.73 1031.78 1031.97 1032.42 1032.57 1032.35 1031.97 1031.65
1012.81 1013.59 1014.41 1015.25 1015.97 1016.53 1017.07 1017.45 1017.69 1017.87 1018.35 1018.69 1018.72 1019.27 1019.81 1019.82 1020.49 1021.19 1022.28 1023.33 1024.10 1024.88 1025.79 1026.39 1027.20 1027.86 1028.29 1028.34 1029.27 1030.21 1030.73 1031.01 1031.28 1031.55 1031.77 1031.91 1032.15 1032.35 1032.61 1032.83 1032.97 1032.99 1032.60
1012.32 1013.01 1013.57 1014.41 1015.29 1015.96 1016.40 1016.86 1017.28 1017.48 1018.11 1019.02 1019.38 1019.50 1019.65 1019.92 1020.43 1021.07 1021.93 1022.79 1023.66 1024.35 1024.95 1025.60 1026.85 1027.86 1028.38 1028.54 1029.18 1030.59 1031.10 1031.34 1031.49 1031.66 1031.79 1032.08 1032.38 1032.61 1032.90 1033.19 1033.32 1033.35 1033.31
1011.44 1012.13 1012.94 1013.62 1014.50 1015.18 1015.75 1016.29 1016.80 1017.27 1017.72 1018.30 1019.19 1019.48 1019.58 1019.75 1020.19 1020.75 1021.31 1022.13 1022.87 1024.15 1025.18 1025.50 1026.19 1027.34 1028.21 1028.07 1028.15 1029.43 1030.69 1031.48 1031.54 1031.63 1031.80 1032.01 1032.41 1032.74 1033.06 1033.31 1033.51 1033.51 1033.42
1010.72 1011.32 1011.96 1012.65 1013.45 1014.31 1015.01 1015.74 1016.53 1017.21 1017.64 1018.22 1018.48 1019.06 1019.26 1019.50 1019.93 1020.34 1020.83 1021.55 1022.33 1023.35 1024.35 1024.52 1025.52 1025.84 1026.80 1027.61 1027.54 1027.39 1028.94 1029.18 1030.57 1031.49 1031.77 1032.10 1032.42 1032.71 1033.11 1033.47 1033.67 1033.70 1033.58
1009.90 1010.78 1011.40 1012.06 1012.73 1013.48 1014.28 1014.75 1015.13 1015.75 1016.39 1017.02 1017.69 1018.50 1019.01 1019.28 1019.77 1019.92 1020.39 1021.01 1021.66 1022.19 1023.51 1023.78 1024.40 1024.95 1025.61 1026.08 1026.78 1027.01 1027.35 1027.45 1028.87 1030.73 1031.53 1031.91 1032.17 1032.44 1032.86 1033.24 1033.51 1033.63 1033.59
1009.34 1010.29 1011.05 1011.75 1012.36 1012.96 1013.55 1014.02 1014.50 1015.05 1015.45 1015.72 1016.73 1017.87 1018.68 1019.25 1019.54 1019.73 1020.25 1020.50 1021.35 1021.72 1022.32 1023.30 1024.11 1024.39 1024.98 1025.32 1025.47 1026.40 1027.34 1027.34 1027.45 1028.38 1030.13 1031.23 1031.98 1032.10 1032.38 1032.70 1033.03 1033.31 1033.51
1009.07 1009.97 1010.74 1011.34 1011.90 1012.66 1013.36 1013.82 1014.02 1014.52 1014.92 1015.21 1016.12 1017.30 1018.07 1018.75 1019.52 1019.79 1020.20 1020.40 1020.77 1021.50 1022.11 1022.64 1023.34 1024.07 1024.35 1024.74 1025.26 1025.86 1026.36 1026.78 1027.17 1027.41 1028.59 1030.06 1030.96 1031.54 1031.93 1032.36 1032.87 1033.05 1033.26
Wind_Speed
12 10 10 9 8 10 12 13 13 12 13 13 13 14 15 15 14 13 14 15 14 17 21 21 18 19 18 19 19 19 19 19 20 22 23 23 23 24 25 24 21 19 26
14 13 12 8 8 10 13 13 12 12 13 13 13 15 15 14 13 13 12 13 13 19 20 19 18 18 18 19 19 19 17 15 11 14 19 22 23 23 23 23 22 20 25
14 13 13 8 9 12 12 12 12 12 14 13 14 14 14 13 13 13 12 13 13 18 19 18 17 19 18 19 20 18 16 12 10 11 17 14 16 23 24 23 23 24 25
13 12 13 11 11 12 12 12 12 12 13 13 14 15 14 14 14 13 13 13 14 18 19 17 17 18 19 19 20 17 14 10 11 13 13 15 16 22 23 24 25 24 25
12 13 12 11 13 13 12 12 12 12 13 14 14 14 14 14 15 14 15 13 16 19 19 17 17 19 19 19 18 15 11 7 13 17 15 14 12 18 22 23 23 23 21
13 11 15 12 13 14 13 13 13 13 13 13 14 14 15 15 15 15 16 15 16 17 17 17 17 18 18 18 16 13 10 7 12 15 15 14 12 20 22 21 22 21 21
12 11 14 11 12 13 12 12 13 12 13 13 13 14 15 15 16 16 16 16 17 17 17 17 18 18 18 18 16 14 13 20 14 14 11 14 15 24 26 26 25 26 27
13 12 13 11 10 12 13 13 12 13 13 13 13 14 15 15 15 16 17 17 18 18 17 18 19 18 19 17 16 13 11 10 13 13 13 12 17 22 23 24 25 26 26
14 12 12 13 12 9 11 12 11 13 13 13 12 13 13 14 14 14 15 17 18 18 18 18 19 19 19 18 15 14 14 12 15 11 13 9 15 19 19 22 24 26 25
11 12 12 12 12 12 11 9 11 11 11 11 11 12 12 12 12 13 12 15 17 18 18 19 20 19 18 15 13 10 14 16 14 12 9 8 18 23 26 26 25 25 24
11 11 10 10 11 10 11 11 10 11 12 12 12 12 12 10 12 10 12 15 17 17 18 18 19 18 17 12 11 10 11 8 10 9 7 17 21 23 25 25 24 25 25
15 13 11 11 11 11 9 13 13 12 10 11 11 13 6 9 9 11 10 12 15 16 18 17 16 14 10 8 6 7 8 10 9 9 7 18 21 21 22 22 23 23 22
16 11 12 12 10 10 9 8 6 6 7 8 13 11 8 7 9 8 7 7 9 11 8 10 7 5 7 6 7 7 9 9 7 6 10 13 19 20 20 20 20 21 22
16 17 14 14 10 12 7 8 9 8 8 7 9 10 8 6 6 8 7 8 6 6 8 7 5 7 9 9 9 9 9 8 6 6 10 13 14 17 19 19 19 20 20
17 16 17 14 14 10 10 9 8 8 7 9 10 12 9 10 8 6 6 7 5 5 6 8 9 8 8 9 9 9 9 10 10 6 6 17 16 18 18 18 18 19 20
16 17 17 17 15 13 10 12 8 8 9 8 6 9 13 9 9 9 7 7 8 8 7 6 8 8 7 8 9 9 9 8 9 9 7 10 17 16 16 16 18 18 18
16 17 18 17 16 15 13 12 9 9 8 8 8 11 13 11 10 11 8 8 8 7 8 8 9 8 8 7 10 8 7 8 7 7 8 7 9 15 16 16 16 16 17
17 18 17 12 15 15 13 11 9 9 8 8 8 9 14 13 13 12 9 8 8 8 7 7 7 8 8 7 8 6 6 6 7 7 5 5 6 7 12 14 15 15 15
20 19 17 17 17 16 14 10 11 11 8 8 8 5 11 13 14 11 9 9 11 9 9 9 7 8 8 8 8 7 6 5 5 6 7 7 6 7 6 12 15 14 14
18 17 18 15 17 16 10 9 8 8 8 6 6 5 7 8 12 10 9 11 11 9 9 8 9 7 7 9 9 7 5 5 4 5 6 6 6 6 5 4 5 7 13
17 18 19 18 17 12 10 10 9 9 8 5 5 9 9 7 10 11 9 12 10 11 12 12 11 11 7 9 9 6 5 4 4 4 4 5 6 6 5 4 2 1 4
18 18 17 17 17 15 10 9 8 9 8 8 8 8 9 8 11 11 12 12 13 10 10 13 14 10 3 9 6 6 5 3 3 4 3 4 5 4 4 4 3 3 3
18 18 19 19 18 16 15 9 8 6 7 7 8 6 6 7 9 10 12 12 14 12 12 16 15 12 9 10 12 4 5 5 7 4 5 4 5 4 4 4 3 3 4
16 16 17 17 17 16 17 13 17 12 11 9 9 6 6 6 8 9 12 13 14 12 13 13 13 11 9 12 8 4 1 6 5 5 5 5 5 6 6 4 4 3 3
12 13 13 15 16 16 16 16 13 12 9 7 8 10 9 6 7 8 9 13 12 9 12 14 13 10 8 10 8 7 3 4 2 4 5 6 4 6 5 5 4 4 3
8 10 11 14 15 15 15 16 16 15 12 9 9 9 7 6 5 6 8 10 11 10 12 12 12 10 9 9 8 9 6 5 5 4 3 8 7 7 6 5 5 4 3
Wind_Direction
176 180 164 190 158 145 122 116 108 101 101 96 93 89 85 80 79 81 66 68 74 88 84 79 75 71 71 72 73 72 72 71 77 72 65 63 60 56 54 49 49 50 49
169 167 159 182 159 142 121 116 110 108 102 98 94 91 89 90 87 83 80 81 75 87 83 80 78 75 71 73 74 73 70 60 62 89 83 70 61 61 62 59 56 58 55
158 158 165 168 153 133 124 115 110 105 103 106 101 94 94 93 93 94 85 79 77 86 83 82 79 76 75 75 74 74 67 46 36 80 81 75 68 64 63 61 60 58 59
157 158 169 153 147 138 128 122 116 112 109 105 98 97 96 96 95 95 88 86 86 89 86 83 82 81 79 77 77 76 66 49 51 69 72 71 69 66 67 66 62 62 63
153 160 135 144 147 146 140 135 126 120 117 110 107 102 102 100 98 97 93 85 84 87 83 84 87 84 82 82 79 76 66 56 73 68 59 68 75 68 69 65 67 66 63
157 157 134 148 152 152 147 140 132 127 121 114 109 108 105 101 100 98 95 91 87 89 91 90 86 85 84 82 78 59 32 32 67 71 82 80 72 77 78 78 73 66 70
163 151 154 154 153 150 148 141 137 131 128 122 115 110 108 107 102 101 100 99 96 96 95 94 92 88 86 83 77 54 45 71 75 73 69 65 67 72 69 69 66 64 62
165 151 156 156 155 154 154 153 147 138 135 126 121 116 113 109 109 110 109 107 105 101 99 97 94 90 85 82 68 52 28 70 80 74 68 63 63 68 69 70 66 64 59
161 166 163 169 168 155 158 157 156 145 140 134 127 115 111 109 107 107 109 109 108 106 105 102 99 94 87 83 70 48 41 51 74 66 76 74 82 82 79 78 75 71 66
164 181 176 174 171 172 166 152 155 147 142 132 117 107 101 98 102 101 103 108 110 110 108 106 102 97 92 78 57 54 63 65 72 72 69 76 80 77 81 80 75 72 68
181 188 179 174 180 174 171 164 158 154 146 135 127 130 146 130 129 132 98 114 115 113 108 106 105 102 92 69 48 67 77 75 73 75 74 76 77 77 77 75 73 74 71
194 194 185 184 186 184 174 161 177 168 168 167 161 164 149 146 122 117 105 107 110 110 109 109 117 136 134 106 92 79 86 81 74 72 67 77 80 80 79 80 80 77 73
193 195 198 188 190 186 187 172 183 177 182 175 173 184 148 116 132 136 132 127 125 128 122 128 147 96 90 89 87 90 96 93 80 69 32 79 90 88 89 84 80 71 70
201 196 198 197 192 196 183 187 194 177 191 183 187 181 148 145 173 149 154 149 156 149 138 125 108 104 93 87 89 90 90 95 89 75 43 21 91 89 83 79 77 76 74
204 202 193 201 199 198 203 190 196 204 197 197 180 180 171 170 168 150 132 154 159 147 144 136 133 115 103 99 94 91 88 90 90 83 59 30 56 73 79 81 82 80 74
205 203 201 200 199 196 201 199 199 218 200 213 198 187 186 172 173 169 155 157 159 160 133 142 127 120 112 106 99 97 96 92 96 96 80 50 49 68 77 80 78 78 77
207 206 201 200 202 199 202 207 215 202 230 197 202 201 194 178 173 169 168 172 158 149 135 116 122 124 111 107 105 100 98 100 101 95 99 91 66 49 70 73 75 77 76
210 208 200 195 203 204 204 205 210 225 213 223 213 194 200 186 177 178 170 161 151 141 132 135 141 133 124 124 123 112 104 100 101 103 96 96 94 82 61 68 70 71 73
210 205 203 198 203 204 209 212 215 219 221 224 224 196 208 196 186 171 170 159 148 147 147 136 144 145 137 122 121 116 111 108 108 102 103 97 93 93 87 65 56 59 65
210 208 206 202 203 203 203 209 214 217 217 228 230 174 207 206 185 171 163 155 155 153 149 146 138 145 144 131 123 115 109 109 117 117 115 107 102 100 95 88 74 50 59
211 207 207 203 203 199 198 198 205 210 208 189 230 208 194 183 180 169 161 157 161 168 166 156 141 148 146 136 120 111 112 123 138 139 132 121 115 100 99 94 93 111 81
208 206 206 206 200 201 197 201 207 211 221 213 212 215 191 171 177 172 163 166 164 157 156 150 152 146 145 172 135 134 161 167 175 170 154 140 136 125 114 101 101 86 80
209 206 204 203 200 199 199 192 195 208 204 212 212 205 192 170 174 172 170 169 164 163 173 164 169 169 159 195 171 151 159 195 143 175 179 174 164 152 135 133 120 114 90
214 212 208 203 200 199 195 196 196 199 204 211 210 202 180 166 181 172 174 173 174 168 178 175 177 174 165 178 177 170 352 125 184 164 186 192 184 176 171 171 154 128 112
206 209 208 206 205 202 200 203 200 204 210 203 195 192 187 169 186 175 177 168 176 179 175 177 175 183 189 174 179 164 184 188 222 138 160 179 194 194 180 181 174 151 164
208 193 200 205 207 205 206 208 207 210 215 201 189 190 183 168 175 174 176 180 175 179 175 178 176 192 179 186 188 170 171 170 186 173 133 157 182 186 182 172 190 186 171